Theta_e
327 328 328 329 331 332 332 332 333 334 329 328 329 332 331 333 334 335 333 333 332 331 328 327 324 323 323 323 321 322 319 322 319 326 327 333 336 335 329 331 322 320 318
326 327 326 328 331 332 332 333 333 333 332 329 328 328 329 332 333 333 330 331 330 327 325 324 323 325 323 323 323 323 322 328 328 323 328 326 327 331 329 333 325 321 323
322 326 327 326 329 331 332 332 335 335 334 334 332 330 331 330 330 331 331 329 331 329 326 324 324 324 323 325 325 322 328 326 329 323 321 324 324 327 327 332 333 334 328
320 322 326 326 328 330 332 332 332 334 334 333 333 330 329 333 334 335 332 332 331 329 330 330 330 327 329 331 329 327 331 328 328 324 322 323 325 330 328 325 324 326 324
319 320 323 327 327 329 331 331 330 331 332 332 330 328 328 328 329 335 335 336 335 334 336 333 334 331 324 327 327 333 334 327 323 322 320 321 321 322 323 324 323 324 327
320 319 321 324 324 326 330 331 331 329 328 328 327 326 327 324 306 312 326 332 334 333 330 329 324 321 315 309 311 310 324 335 333 321 321 321 329 327 326 325 325 323 320
321 321 320 321 322 325 326 328 328 330 331 330 329 328 325 323 305 308 315 329 329 330 329 328 325 321 322 324 310 309 310 310 314 334 330 330 332 332 333 331 330 327 324
321 321 320 318 320 323 324 326 330 331 331 329 328 328 327 315 302 305 312 332 331 330 331 329 329 328 324 324 324 324 325 326 327 327 332 334 334 337 337 335 335 334 330
321 321 321 318 319 322 323 327 331 331 332 330 329 329 328 321 299 299 309 329 328 328 329 329 329 328 304 304 323 322 323 324 301 302 302 298 297 298 305 325 322 320 318
321 322 322 320 319 321 326 329 331 331 330 327 328 329 319 326 298 297 304 320 324 321 323 321 302 316 299 299 322 323 321 322 321 315 319 312 302 313 299 314 319 313 314
322 323 323 322 322 325 330 332 330 328 328 328 326 328 326 326 314 296 296 318 317 315 314 313 313 297 296 295 295 323 317 313 314 318 318 318 321 320 318 318 318 313 309
323 322 323 324 321 322 329 329 327 330 328 326 325 324 323 326 310 296 295 295 303 319 317 317 312 295 294 294 297 296 297 300 314 315 316 317 318 318 319 319 322 320 318
323 322 323 324 322 324 326 326 323 327 322 321 319 319 319 322 323 300 295 295 298 320 322 304 295 292 292 293 292 294 294 312 314 314 316 319 321 320 321 320 324 320 317
323 325 325 325 322 324 324 324 321 320 319 318 317 318 319 320 321 319 314 309 298 309 307 315 312 306 304 305 308 305 312 313 315 317 318 319 320 318 313 311 308 305 304
328 327 327 324 325 324 324 322 320 325 319 318 321 320 321 320 320 315 313 317 318 314 317 321 319 318 318 318 319 318 320 320 319 320 317 307 303 305 302 303 303 302 301
328 326 324 323 323 321 320 321 302 304 302 300 300 310 320 306 299 300 300 301 301 299 314 322 322 322 322 323 324 320 318 314 314 310 308 306 302 301 301 301 302 306 305
329 328 324 320 323 321 319 318 317 310 298 298 296 300 304 301 297 297 296 295 294 299 318 322 324 325 324 325 323 317 310 304 306 303 303 301 303 302 300 304 304 304 303
332 309 325 325 324 322 323 319 318 318 316 318 299 305 298 296 296 294 294 299 311 308 322 324 324 324 321 317 313 309 304 306 302 300 299 300 304 305 303 302 302 301 300
332 328 327 326 324 321 322 322 319 318 318 317 320 303 298 292 292 292 294 318 320 322 323 325 322 319 314 309 308 307 304 305 303 306 307 306 304 303 302 302 301 292 295
331 317 318 327 325 323 324 321 321 321 321 319 319 317 313 308 313 313 314 319 324 325 322 319 314 312 311 307 308 308 305 305 305 304 303 302 303 303 301 301 301 300 298
329 329 313 325 324 324 324 323 323 321 320 320 322 319 303 316 317 318 319 326 325 321 318 314 311 310 310 309 307 305 304 302 302 302 301 302 303 301 302 301 300 300 299
329 328 327 326 326 325 325 325 322 322 321 320 321 312 295 323 325 325 326 323 321 316 314 312 309 309 307 306 304 303 301 300 301 301 302 303 303 301 301 301 299 299 298
328 327 327 327 327 317 323 324 321 322 322 323 322 319 319 325 325 323 316 316 313 312 312 310 307 305 305 303 303 301 300 300 301 303 301 302 301 300 300 300 299 298 297
327 327 326 326 325 325 325 324 324 310 320 325 324 323 324 322 317 313 312 312 312 310 308 305 302 301 301 301 302 302 303 301 302 302 301 300 300 299 300 299 298 298 298
328 328 327 327 325 325 326 325 326 324 324 324 323 322 318 316 314 312 311 308 304 301 300 300 300 301 301 301 301 299 289 286 294 287 299 301 300 300 299 298 298 298 297
326 327 327 327 326 325 325 325 325 326 323 320 320 318 314 312 309 306 303 302 300 298 299 301 301 301 301 299 297 287 286 286 292 285 297 301 299 298 297 296 295 295 295
Wind_Speed
6 5 5 6 7 6 6 7 5 8 8 8 8 7 8 9 9 9 10 10 13 11 9 10 9 10 7 6 4 2 4 6 7 8 8 5 6 8 10 5 10 8 8
7 7 6 5 7 6 7 8 7 6 9 8 6 5 5 6 7 10 10 9 13 12 10 10 10 7 9 5 4 9 8 7 7 10 8 7 6 7 8 6 8 10 10
9 8 7 6 7 7 6 9 7 9 8 9 7 8 8 7 6 6 8 7 11 11 11 11 12 11 9 8 6 7 5 5 8 8 8 8 8 7 8 7 6 6 3
9 10 8 8 7 8 7 10 7 9 11 10 7 9 9 12 10 12 12 9 9 9 10 14 16 16 14 11 8 6 4 6 6 7 8 8 7 7 7 7 7 7 7
10 10 9 9 8 8 8 7 9 8 9 12 10 9 8 9 8 14 12 11 11 12 11 13 8 9 8 4 8 7 6 7 8 8 8 8 7 8 8 7 7 7 7
10 11 11 10 10 9 8 7 8 8 9 10 10 10 8 8 10 10 10 10 11 11 10 11 9 10 10 9 11 11 3 5 5 6 6 7 7 7 7 7 7 7 8
12 12 12 12 11 11 10 10 9 8 7 7 9 11 10 8 8 9 6 9 9 9 10 10 11 9 9 8 8 10 9 7 7 3 2 4 6 8 6 8 7 6 7
13 13 12 13 12 12 11 10 9 8 8 7 8 10 10 6 3 4 3 9 9 9 8 6 9 8 6 6 7 7 6 5 4 4 2 3 3 5 5 6 6 7 9
15 13 13 13 13 13 12 11 10 9 9 8 8 7 8 7 2 1 5 8 8 7 7 6 7 7 4 4 6 7 6 6 5 3 3 3 2 3 4 5 8 9 9
16 15 14 13 14 14 12 11 10 9 9 8 8 7 6 9 6 3 5 5 7 6 5 5 8 5 8 4 2 5 4 3 3 5 5 4 4 4 1 4 7 9 9
15 15 14 13 13 12 11 10 10 10 9 8 8 7 8 9 8 8 5 4 8 7 7 7 7 9 7 4 4 4 4 7 2 3 5 5 5 5 6 7 4 6 9
16 16 15 14 11 11 12 11 11 9 8 8 8 7 7 7 11 9 6 2 7 5 6 6 7 11 8 4 1 7 7 6 5 6 6 6 6 6 4 5 6 5 7
16 16 16 15 13 13 13 12 11 10 9 10 9 9 9 9 9 10 7 3 4 3 7 9 14 9 7 3 8 3 2 4 5 5 6 6 6 7 6 5 6 5 5
17 15 14 15 14 13 11 11 11 11 11 10 10 10 9 10 10 9 8 6 3 4 7 7 8 5 5 2 3 6 4 4 5 6 7 6 6 7 10 10 6 5 4
16 15 14 14 13 12 12 12 12 11 11 11 10 10 10 10 11 13 12 10 9 9 6 6 6 5 6 6 4 4 6 6 2 6 8 8 6 6 5 6 5 5 4
15 14 14 14 14 13 12 11 5 1 13 11 10 1 6 4 17 18 14 8 11 13 7 7 8 8 8 6 4 10 9 9 7 7 6 6 5 4 2 0 6 7 8
16 15 13 14 14 14 13 13 13 3 9 8 11 9 6 13 15 16 14 12 8 9 7 8 7 2 3 3 5 8 9 7 7 6 6 4 5 4 4 4 5 6 9
18 15 14 14 14 14 13 13 13 14 13 11 5 5 10 10 13 14 14 12 5 5 8 6 5 5 8 7 7 8 6 5 6 3 3 2 4 4 5 7 8 8 8
16 14 15 13 14 14 14 14 14 14 14 13 11 4 8 8 9 8 12 9 9 9 9 7 8 7 8 7 6 7 7 6 4 3 3 2 6 6 5 6 6 5 6
16 17 14 13 13 14 13 15 14 13 13 14 13 13 11 8 9 10 10 10 10 7 9 8 9 8 9 9 8 7 4 5 4 4 5 4 5 4 4 5 6 8 7
13 14 11 14 13 13 12 13 13 13 13 12 13 13 18 15 13 12 13 10 9 10 10 11 11 10 9 9 8 8 6 7 4 5 4 3 0 3 4 5 5 5 6
13 13 15 15 13 13 13 12 10 11 12 13 6 11 16 11 11 10 10 10 10 11 11 12 11 10 10 8 5 8 6 6 4 3 3 2 3 4 5 5 7 7 8
12 14 14 14 13 11 10 11 10 11 8 6 12 13 13 10 11 11 12 11 13 11 11 11 12 11 9 8 7 6 6 4 3 2 3 3 2 3 4 3 6 7 7
12 13 14 12 12 13 11 9 8 5 6 14 13 13 12 13 13 15 13 12 12 12 11 11 9 11 10 8 6 6 5 5 2 4 2 2 3 1 4 5 7 9 8
12 12 11 10 10 9 9 11 9 11 8 12 11 10 13 14 14 13 13 13 12 10 10 8 7 11 12 11 10 11 6 6 8 6 6 3 4 6 5 6 8 7 8
12 9 9 9 10 12 12 13 13 11 11 11 11 12 14 14 13 13 13 13 11 10 11 10 9 11 14 11 12 8 6 7 6 5 5 6 4 6 7 9 11 8 11
Wind_Direction
153 133 134 105 101 102 92 75 64 108 98 81 89 105 93 101 112 120 111 124 121 115 113 116 114 124 120 124 127 167 232 209 137 177 130 165 158 170 164 221 146 179 173
161 146 136 129 112 101 95 97 102 87 115 107 92 82 100 102 112 118 128 142 135 131 128 127 130 140 137 161 156 214 237 187 160 139 139 151 172 134 168 194 177 192 194
167 149 144 143 122 109 94 96 115 117 97 113 139 160 164 171 164 152 136 137 124 135 143 142 148 152 160 195 206 223 220 129 129 146 154 161 169 159 179 201 207 249 234
171 159 151 148 138 134 140 122 129 120 127 124 135 108 113 139 145 142 142 138 143 144 164 154 159 166 187 196 179 204 178 142 148 144 159 160 168 164 192 197 205 229 225
175 157 162 155 155 150 142 134 120 125 120 120 119 92 94 102 99 128 139 150 140 145 150 157 157 135 127 115 157 184 165 163 170 158 161 167 182 176 208 214 226 217 212
177 161 168 168 165 153 146 142 140 129 128 123 125 105 84 81 26 50 108 113 117 117 101 113 128 115 94 78 76 77 56 133 148 161 167 188 188 196 204 229 218 229 234
182 164 167 174 169 165 163 154 146 137 137 130 118 110 106 93 40 46 77 111 113 115 121 140 141 127 146 131 92 95 80 64 33 296 316 174 178 202 229 202 252 246 255
187 174 169 174 174 171 171 160 151 151 148 146 138 125 122 107 46 29 56 124 129 130 135 135 113 150 111 131 148 146 151 173 201 236 234 274 274 306 220 251 270 267 267
188 182 176 176 173 176 176 163 166 166 164 165 154 147 136 136 164 305 315 155 138 140 147 131 152 151 107 16 194 164 159 151 124 79 63 64 21 352 4 297 246 244 261
189 185 180 177 174 178 177 170 173 176 176 181 166 168 131 147 171 230 278 167 153 153 152 128 53 113 144 72 233 160 167 167 219 167 200 228 236 242 230 266 291 283 291
189 183 178 176 173 176 170 170 176 188 176 205 175 169 167 152 166 202 234 258 160 171 162 165 144 128 126 96 27 16 34 328 162 265 278 262 237 235 233 200 222 283 289
190 182 176 171 181 170 173 177 182 191 182 193 180 180 174 166 145 206 212 183 344 165 154 150 121 147 138 117 268 67 44 335 277 282 287 285 287 287 311 23 7 316 294
191 183 174 170 188 167 177 178 184 187 191 191 189 193 177 175 158 167 188 231 333 5 53 61 107 113 124 185 247 209 244 263 285 298 299 301 322 42 1 304 259 260 247
190 182 176 174 184 171 181 183 193 185 198 193 188 190 179 171 165 167 184 184 241 254 144 149 135 129 210 286 181 184 236 259 304 326 334 336 338 7 17 20 14 358 351
185 181 181 182 183 175 194 184 198 185 202 191 190 190 182 180 182 164 173 183 192 209 181 180 194 200 207 197 206 217 206 175 183 29 35 37 30 23 38 358 348 305 262
186 184 185 186 177 189 193 189 178 292 189 92 61 205 165 157 139 146 157 159 167 160 205 205 209 213 209 208 202 87 65 60 47 61 45 53 31 348 60 252 257 296 333
190 188 188 199 180 195 189 199 189 126 72 100 92 75 83 135 126 128 122 110 125 147 229 219 227 225 137 138 94 102 93 71 64 73 79 24 357 301 273 312 301 330 353
188 190 199 196 194 194 192 196 197 191 195 199 141 134 132 136 133 131 132 132 156 212 241 237 169 167 98 114 107 111 113 105 90 92 90 189 233 276 322 2 4 353 341
187 196 199 194 211 191 199 197 204 199 195 199 180 172 124 84 94 120 161 207 207 191 200 126 113 120 113 113 125 108 108 115 132 166 143 46 24 4 358 357 347 330 337
198 195 198 214 191 211 199 202 203 206 197 190 182 185 160 152 174 179 199 218 236 119 111 135 119 133 127 124 119 112 126 154 144 85 53 52 38 11 350 349 356 3 353
199 193 209 207 219 197 211 206 203 206 210 209 170 159 166 184 186 186 195 176 143 140 142 139 133 124 124 133 141 138 139 103 86 73 54 61 334 10 9 12 345 337 337
208 203 189 216 211 212 203 207 206 199 211 213 149 145 163 195 167 160 167 147 146 136 135 129 135 130 127 149 143 97 94 106 90 109 195 85 52 13 335 355 339 347 352
211 205 200 197 215 216 192 200 204 196 184 175 140 153 178 165 153 153 135 129 125 132 132 137 139 131 113 99 103 103 124 127 141 87 74 58 353 25 311 347 333 335 339
211 206 208 187 204 210 211 188 193 223 230 137 150 167 168 137 136 131 136 137 138 139 131 116 114 122 123 112 106 130 100 29 64 93 5 358 333 320 320 346 339 341 334
222 203 206 185 198 204 200 198 204 194 194 147 158 160 133 137 128 132 138 134 119 117 112 117 121 123 122 139 107 101 78 39 41 349 282 262 339 325 338 355 333 325 339
235 178 199 190 199 193 197 192 195 193 154 157 146 125 126 133 130 126 133 129 125 123 127 122 123 131 123 105 104 100 80 54 29 349 320 312 349 342 7 336 334 346 338